Location: Boitzum
(52.1496°N, 9.6943°E)
Time: 01:49:34
(UTC+00:00)

Cosmos 2074 Rocket - Pass Details

Date: 25 April 2026
Orbit: 967 x 984 km, 82.9° (Epoch: 19 May)

Event Time Altitude Azimuth Distance (km) Brightness Sun altitude
Rises 20:00:32 0° 261° (W) 3,681 7.6 -11.7°
Reaches altitude 10° 20:05:17 10° 293° (WNW) 2,743 7.6 -12.3°
Maximum altitude 20:07:17 11° 312° (NW) 2,637 7.7 -12.5°
Drops below altitude 10° 20:09:16 10° 331° (NNW) 2,750 7.6 -12.7°
Sets 20:14:05 0° 3° (N) 3,706 7.7 -13.3°
